Wind_Speed
45 45 41 39 41 42 40 38 36 36 34 31 31 32 31 29 27 25 24 23 21 22 24 23 20 22 24 24 25 24 22 21 21 21 21 21 22 26 29 31 34 35 36 36 36 36 37 37 39 40 41 41 42 41 41 41 41 41 41 42 42 42 43 44 44 45 45 46 47 47 48 48 49 50 50 51 52 53 53 54 54 55 56 57 58 59 59
44 42 39 39 42 41 39 38 36 35 33 31 31 32 30 29 26 24 24 23 20 21 22 20 19 21 23 24 24 21 20 21 22 23 22 22 24 26 29 33 34 34 36 38 39 39 39 39 39 41 42 43 43 43 42 41 41 41 42 42 43 43 44 45 45 46 46 47 48 49 49 50 50 51 52 52 53 53 54 55 55 56 57 57 58 58 59
42 40 39 40 41 39 38 37 35 33 32 30 30 31 30 28 26 24 25 24 21 21 20 20 22 24 24 23 21 19 20 21 22 23 23 23 24 25 27 30 32 33 35 37 40 41 40 40 40 41 43 44 44 43 42 42 42 42 43 43 44 44 45 45 46 46 47 48 49 50 51 51 52 53 53 54 54 54 55 55 56 56 56 56 57 57 58
42 41 40 40 40 39 37 36 34 32 31 31 31 31 30 29 27 27 28 25 22 21 21 22 23 22 22 21 18 18 21 21 23 26 25 25 25 25 26 28 29 33 34 35 37 38 38 39 40 42 44 44 43 43 43 43 42 43 43 44 45 45 45 46 47 47 48 49 50 51 52 53 53 54 54 53 53 54 55 55 55 55 55 56 57 58 58
41 42 42 42 41 39 38 37 35 33 32 32 33 33 31 30 29 30 30 25 22 22 23 21 19 18 21 22 19 20 23 24 28 29 25 25 27 27 28 29 30 33 35 36 36 36 37 39 40 42 43 42 41 42 42 43 44 44 45 45 46 46 46 47 48 49 49 49 50 51 52 53 54 54 53 53 53 54 54 55 54 54 56 57 58 59 58
42 43 43 42 40 38 38 37 36 35 35 35 34 33 32 31 32 32 28 23 22 24 24 22 20 20 23 24 24 26 27 28 31 31 28 28 29 28 28 30 31 33 34 35 36 35 36 37 38 38 38 37 38 41 43 46 48 47 48 49 50 49 47 48 49 50 49 48 49 50 50 51 53 53 53 54 54 54 54 55 55 56 58 59 59 59 59
43 43 42 41 39 39 40 39 37 36 35 35 34 34 34 34 33 29 25 23 25 26 25 24 25 26 26 26 28 30 30 31 33 34 34 33 31 29 29 30 32 32 31 33 35 33 32 33 34 35 36 38 41 45 49 51 52 52 53 54 54 52 50 49 50 51 49 48 50 50 50 51 52 53 55 56 54 54 54 56 58 59 60 60 59 59 59
41 41 41 41 40 41 41 38 36 35 35 35 35 36 36 34 30 27 25 27 28 26 25 26 28 30 29 28 30 32 32 33 35 35 36 35 34 32 32 33 34 33 32 34 33 31 31 32 31 32 34 37 40 45 50 51 52 54 55 55 55 53 50 49 50 51 50 49 50 51 51 52 53 54 55 55 54 55 57 58 60 60 60 60 60 59 59
39 40 40 40 39 39 38 36 35 35 36 35 36 37 35 30 28 28 27 28 28 26 27 28 29 31 31 29 31 33 33 34 34 35 35 36 37 36 35 36 37 36 35 34 32 31 29 25 25 28 28 27 26 30 35 40 45 52 55 56 57 53 50 50 51 52 52 51 50 51 52 53 53 53 53 54 56 58 59 59 60 60 60 59 59 58 58
37 38 38 38 37 37 37 36 34 34 36 36 36 36 33 29 29 30 28 28 28 29 31 30 29 30 31 30 31 33 34 36 35 35 36 37 37 36 34 35 35 34 33 31 29 29 25 20 23 29 32 31 29 30 33 36 42 52 60 63 63 59 56 55 54 53 54 53 53 53 52 52 52 53 55 57 58 58 59 59 59 59 58 58 58 58 58
36 37 37 36 36 36 35 34 34 35 36 36 35 34 31 29 29 30 29 29 28 32 35 32 30 31 30 30 32 34 35 36 35 35 36 37 36 33 31 32 32 29 27 27 29 29 26 23 28 37 41 40 38 38 38 35 36 47 58 63 64 62 60 59 57 55 55 55 54 52 51 52 54 57 59 59 58 58 58 58 57 57 57 57 58 59 59
33 36 36 35 33 33 32 32 33 34 33 32 32 33 30 29 30 30 28 28 29 33 35 31 29 30 31 32 35 35 34 33 32 30 31 32 31 30 28 29 28 26 24 26 30 33 32 30 33 38 42 42 40 39 38 35 37 46 55 60 63 62 60 58 58 57 56 55 53 53 54 56 58 59 59 58 57 57 56 56 56 57 57 57 59 60 60
30 32 34 33 30 29 30 30 30 30 29 29 30 31 30 30 32 31 28 27 29 31 31 28 26 29 31 33 35 35 34 33 31 29 27 28 30 32 31 29 27 25 25 27 31 36 39 40 42 43 42 39 39 39 40 42 46 51 57 61 63 63 60 58 58 57 56 55 56 56 57 58 59 58 57 56 56 55 55 56 57 58 58 59 60 61 62
29 29 31 30 29 29 30 28 27 28 29 29 30 30 30 30 30 29 29 29 29 29 29 27 26 29 32 35 36 37 35 33 33 32 30 28 29 32 33 32 30 29 30 33 37 39 41 40 41 42 41 41 43 45 47 50 54 58 62 63 62 61 60 59 58 56 56 56 56 57 57 57 57 56 56 55 55 55 56 57 58 59 60 61 62 63 64
29 30 30 29 27 27 27 26 26 27 28 29 29 28 26 25 26 28 28 28 27 28 29 28 27 27 29 33 36 37 33 30 30 31 31 28 26 27 30 32 32 32 32 33 32 33 36 36 37 41 46 50 52 52 53 55 56 58 61 63 62 62 61 59 57 56 55 55 55 55 56 55 55 54 54 55 55 56 57 59 60 61 62 63 64 65 66
26 26 25 25 25 25 26 27 27 26 25 25 24 23 22 23 25 26 24 23 24 26 27 27 26 25 25 28 32 34 31 28 27 28 29 28 27 28 29 29 28 26 26 27 26 30 36 41 43 48 53 56 57 56 55 56 57 59 60 61 60 60 58 56 56 55 54 54 54 54 54 53 54 54 54 55 57 58 59 60 61 62 63 64 65 65 66
22 22 21 21 22 24 25 25 25 24 21 19 18 17 16 16 19 20 19 19 21 23 24 25 24 23 23 24 26 28 29 30 31 32 33 32 30 29 28 27 24 19 19 25 34 40 46 50 53 57 60 59 58 57 56 56 57 58 58 58 57 56 55 54 55 54 54 53 53 53 53 53 54 55 55 57 58 60 61 62 63 63 64 64 64 64 64
19 21 20 17 15 20 23 22 20 19 17 15 14 14 13 14 19 21 19 18 19 20 21 21 21 21 21 23 26 28 29 31 34 36 38 36 33 31 29 27 25 23 25 35 47 52 55 59 60 61 60 58 57 56 55 54 54 54 54 54 53 53 53 53 53 53 52 52 52 52 52 53 54 55 56 58 60 61 62 62 62 63 63 63 63 62 61
15 18 20 19 14 19 23 23 21 18 15 14 13 14 16 18 22 22 19 18 18 18 19 20 21 22 23 26 29 31 32 32 33 35 37 35 32 31 31 31 35 39 43 49 55 59 61 62 60 59 58 57 56 54 53 52 52 51 51 51 51 52 52 51 51 51 51 51 52 53 53 54 55 56 57 59 60 60 61 61 61 61 61 60 59 57 57
19 20 22 24 25 25 24 24 23 20 15 12 12 15 18 18 16 17 19 21 20 19 21 24 25 25 25 27 30 32 33 35 34 32 32 32 33 36 39 42 47 51 54 57 60 61 61 59 58 57 56 55 53 51 50 50 50 50 50 50 50 50 50 50 50 50 51 52 53 54 55 55 56 57 58 59 59 60 60 60 59 59 57 56 55 54 54
23 23 23 26 30 31 26 21 20 18 13 9 9 16 20 16 11 13 21 26 26 23 22 24 28 32 36 37 38 37 36 36 35 34 35 38 41 44 47 49 52 54 56 57 58 57 56 55 55 55 53 51 50 49 49 49 49 49 49 49 48 48 48 49 49 50 51 53 54 55 56 57 57 58 58 59 59 59 59 58 57 55 54 53 52 52 53
24 25 25 27 28 27 24 20 18 17 14 9 9 15 18 17 14 17 24 29 29 28 28 30 32 36 39 42 43 42 39 38 39 40 41 44 46 46 46 47 49 50 52 52 52 52 52 52 52 51 49 48 48 48 47 48 48 48 48 48 48 48 48 49 49 51 52 54 55 56 57 57 57 58 58 58 58 58 57 56 54 52 51 51 51 51 52
27 27 26 27 26 23 22 21 21 22 20 18 18 23 26 25 23 24 25 24 26 31 35 36 36 37 39 41 42 43 43 42 41 41 40 41 42 42 43 44 45 46 47 48 48 49 49 48 48 47 47 47 47 47 47 47 47 47 48 48 48 48 48 49 51 52 53 55 55 56 56 56 57 57 58 58 57 55 54 53 52 51 50 51 52 52 52
29 27 25 26 26 24 23 22 23 25 26 26 27 29 29 26 25 25 24 23 26 30 31 31 34 40 44 44 43 43 43 43 42 42 42 41 41 41 41 42 43 44 44 44 45 45 45 45 45 45 45 46 46 46 46 47 47 47 47 48 48 49 49 51 52 53 54 55 55 55 55 55 55 56 57 57 56 54 52 51 50 50 50 51 52 53 53
30 27 25 25 25 25 26 27 28 28 28 29 31 31 29 25 25 27 27 26 28 30 29 29 33 40 44 45 45 44 43 42 42 43 43 43 42 41 41 41 42 42 42 42 42 43 43 44 44 44 45 45 45 46 46 46 47 47 48 49 49 50 50 52 53 54 54 55 55 54 54 54 55 55 55 54 53 53 52 51 50 50 51 52 53 54 54
34 31 28 27 27 26 27 29 31 30 28 28 30 31 29 27 26 28 29 27 25 27 30 31 32 35 38 41 42 42 41 41 42 42 42 42 41 40 40 40 40 41 40 40 41 41 42 42 43 43 44 44 44 45 45 46 46 47 48 49 50 51 51 52 53 53 54 54 54 54 53 54 54 53 52 51 50 50 50 51 51 52 53 53 53 53 53
37 34 31 30 30 29 29 30 32 32 33 33 31 30 29 28 27 26 23 20 20 23 27 30 31 33 35 37 38 39 41 42 42 42 41 40 40 40 40 40 40 40 40 40 40 40 41 42 42 43 43 43 44 45 45 46 47 48 48 50 51 51 52 52 52 52 53 53 53 53 52 52 52 51 50 49 48 48 49 50 51 52 53 54 53 51 50
38 36 32 31 31 29 30 32 33 35 37 35 32 30 29 27 26 23 21 20 20 22 25 29 33 35 37 38 39 42 43 42 41 40 39 39 39 39 40 40 40 41 40 40 41 41 41 42 42 43 44 44 44 45 46 47 48 48 49 50 50 51 52 52 52 52 52 52 52 52 51 51 50 49 48 47 47 48 48 49 50 51 52 53 51 48 45
40 37 35 34 32 30 32 36 36 34 35 35 33 31 31 28 26 25 24 24 23 22 25 31 35 37 38 38 39 41 40 39 38 37 38 38 38 39 40 40 41 41 41 41 41 42 43 43 44 44 45 45 45 46 47 48 49 49 50 50 49 50 51 51 51 52 52 51 51 51 50 49 48 47 46 46 47 48 48 49 50 51 51 50 48 44 40
40 39 38 37 36 35 37 41 41 36 33 33 34 34 33 31 27 25 24 25 25 26 29 32 34 35 36 36 37 37 37 36 36 37 38 39 39 40 40 40 41 41 41 42 43 43 44 45 45 45 46 46 47 48 48 48 49 50 50 50 49 49 49 50 50 51 51 50 50 49 48 47 46 46 45 46 47 48 48 49 49 49 48 47 44 40 35
39 40 41 40 40 42 43 44 43 40 36 35 35 35 34 31 27 24 24 26 28 30 32 33 34 35 37 37 37 37 37 37 38 39 40 40 41 41 42 42 42 42 42 43 43 44 44 45 45 45 46 47 48 48 48 48 49 49 50 49 49 49 49 50 50 49 49 49 48 47 46 45 45 44 45 46 47 47 48 48 48 47 45 43 39 35 30
42 44 47 45 44 46 46 42 40 40 39 38 35 33 32 30 27 27 28 31 33 33 33 35 37 39 40 40 40 40 39 39 40 40 41 43 43 43 42 42 42 42 42 42 43 43 44 45 46 46 47 48 48 48 48 48 48 49 49 49 49 49 49 49 49 48 48 47 46 45 44 43 43 44 44 46 47 47 47 47 46 44 42 39 34 30 25
46 47 48 47 45 46 46 43 40 40 41 39 35 32 31 31 30 28 30 33 34 34 34 35 38 40 41 42 42 41 40 41 41 42 43 44 43 41 40 41 42 42 42 42 43 43 44 45 46 47 48 48 48 48 47 47 47 47 48 48 48 49 49 48 47 47 46 45 44 43 42 42 42 43 44 45 46 47 46 46 44 41 38 34 30 25 21
51 50 49 45 42 43 45 45 43 43 42 39 36 33 32 32 30 28 28 31 33 34 35 36 39 41 41 41 41 42 42 42 42 42 43 42 41 41 41 43 43 44 43 44 44 45 46 46 47 48 49 48 47 46 46 46 46 46 47 47 47 47 47 46 45 45 44 43 42 41 40 41 42 43 44 45 46 46 45 43 41 38 35 30 25 21 16
53 52 52 49 44 42 44 45 45 45 43 41 39 35 33 33 31 28 29 34 38 39 39 40 41 41 42 42 42 43 42 41 41 41 40 39 39 41 43 44 44 44 44 45 46 46 47 48 49 48 47 46 46 45 44 45 45 45 46 46 45 44 44 43 43 42 41 40 39 39 39 40 42 43 44 45 45 44 43 41 38 35 31 26 21 16 11
53 50 51 50 46 44 45 48 49 48 46 46 44 39 35 35 33 30 31 37 41 42 43 43 43 43 43 44 44 42 41 41 41 40 38 38 40 43 44 45 45 45 46 46 47 48 48 48 48 47 46 45 44 44 44 44 44 44 43 43 42 41 41 41 41 40 39 38 37 38 39 40 41 42 43 44 44 43 41 39 36 33 28 22 17 12 7
56 52 49 48 46 45 47 50 51 50 49 50 50 45 40 39 38 35 35 39 42 45 46 47 46 45 45 45 44 42 42 43 43 41 41 43 45 46 46 46 47 47 47 47 48 48 49 48 47 46 45 44 44 43 42 42 41 40 40 39 39 39 39 39 38 37 36 36 36 37 39 40 41 42 43 43 42 41 39 37 33 29 24 19 14 8 3
56 55 54 51 47 43 44 48 50 50 51 53 50 44 39 40 43 43 43 44 46 47 48 48 48 47 46 45 44 42 42 43 43 44 45 47 47 47 47 47 47 47 47 48 48 49 48 47 46 45 44 43 41 40 38 38 37 37 36 37 37 37 37 36 36 35 35 35 36 37 38 39 40 41 42 41 41 39 37 34 31 26 21 15 10 4 2
56 54 54 51 46 42 42 45 49 50 52 54 50 43 39 41 44 46 47 49 49 50 50 50 49 47 45 44 43 42 43 44 45 46 47 48 47 47 47 47 47 47 47 47 48 47 46 45 44 43 41 39 38 36 35 35 35 35 35 35 35 35 34 34 33 33 34 35 36 37 38 39 40 40 40 40 39 38 35 32 28 24 18 12 7 1 5
56 53 51 49 46 42 39 41 45 48 51 54 53 50 47 46 47 47 47 48 49 50 51 49 47 44 43 43 43 43 44 46 46 47 47 47 47 48 47 47 47 47 46 45 44 44 43 43 42 40 38 37 36 35 34 34 34 34 34 34 33 33 32 32 32 32 33 34 35 36 37 38 39 39 39 39 39 37 33 30 26 21 16 10 5 3 7
57 55 52 49 45 41 37 36 39 43 44 46 48 49 49 48 48 48 47 46 44 43 43 42 41 41 42 43 44 44 45 46 47 47 48 48 48 47 47 46 45 44 42 41 41 42 42 42 40 38 36 35 35 34 33 33 33 33 33 32 31 31 31 31 31 32 33 34 35 36 37 38 38 38 38 38 37 35 32 28 24 20 14 8 4 5 10
56 54 51 47 43 40 37 36 38 38 38 39 42 44 46 47 47 46 44 41 37 36 36 38 40 42 43 44 45 45 45 46 47 48 48 47 46 45 45 44 43 41 41 40 40 40 39 38 37 35 34 33 33 32 32 32 32 32 31 30 30 30 30 30 31 31 33 34 35 36 37 37 37 38 38 37 36 34 30 26 22 18 12 7 5 7 12
53 51 49 46 42 37 37 41 43 41 40 42 43 45 48 50 49 47 43 39 36 36 37 40 42 44 45 46 46 46 47 48 49 48 47 45 44 42 41 41 41 40 39 38 37 35 35 34 34 33 32 31 31 31 31 31 31 30 29 29 29 29 29 30 30 31 32 34 35 36 36 36 36 37 38 37 35 33 29 25 21 17 12 7 6 9 13
46 47 47 46 41 35 35 43 48 47 45 45 46 47 50 51 49 46 43 41 40 40 41 42 43 45 46 46 46 46 47 48 49 47 45 43 41 39 38 38 39 39 37 35 34 33 32 32 31 31 30 30 30 30 31 31 30 29 28 28 28 28 29 29 30 31 32 34 35 35 35 36 36 37 37 36 34 32 28 24 20 16 11 7 7 10 15
42 44 45 46 44 40 38 43 49 52 52 51 50 51 53 52 47 44 42 43 43 43 43 43 44 45 46 47 47 46 46 47 48 45 42 39 38 38 37 37 37 36 34 33 32 32 31 31 30 29 29 29 30 30 31 30 29 28 28 28 28 28 28 29 30 31 32 34 35 35 35 35 36 36 36 35 33 31 28 23 19 15 11 7 7 11 15
45 46 46 48 48 45 42 43 47 52 56 57 56 56 55 51 46 42 43 44 44 43 44 45 46 46 46 46 47 47 47 47 45 42 38 37 37 38 37 36 34 33 32 31 31 30 30 30 30 28 28 29 29 30 30 29 28 27 27 27 27 28 28 29 30 31 32 33 34 34 35 35 35 36 36 35 33 30 27 23 19 15 11 8 7 11 16
48 48 49 50 49 47 45 45 47 50 54 57 58 58 56 52 47 44 44 44 44 44 46 47 47 46 45 45 45 45 45 44 43 40 38 37 37 37 35 34 32 31 30 29 29 29 30 30 29 28 28 29 30 29 28 27 27 27 27 27 27 27 28 29 29 31 32 33 34 34 34 35 35 35 35 34 32 29 26 23 19 15 11 8 8 10 15
51 51 51 51 50 49 49 49 50 50 51 53 54 53 52 50 47 44 43 43 44 45 47 47 46 45 45 44 44 43 42 41 38 37 36 35 35 35 34 32 31 29 28 28 28 29 29 30 29 28 28 29 29 29 27 26 26 26 26 26 26 27 27 28 29 31 32 33 33 34 34 35 35 35 35 33 31 28 26 22 19 15 11 8 8 11 15
51 53 52 50 48 48 50 51 51 50 49 50 51 50 48 46 43 42 44 45 45 46 46 45 44 43 43 42 41 41 39 37 35 34 34 34 34 33 32 31 30 29 28 27 28 28 29 30 29 28 27 28 29 28 27 26 25 25 25 26 26 26 27 28 29 30 31 32 33 34 35 35 35 35 34 33 31 28 25 22 19 15 12 9 9 11 14
46 50 52 49 47 48 50 51 50 49 48 48 48 49 49 47 45 44 45 46 45 45 44 42 41 41 40 39 38 36 35 34 34 34 33 33 33 32 31 30 29 28 27 27 27 28 29 30 29 27 27 29 29 29 27 26 25 25 25 25 25 26 27 28 29 30 31 32 33 34 35 35 36 35 34 33 31 28 25 22 19 16 12 10 9 11 14
37 42 47 48 47 47 49 50 50 50 49 47 47 48 50 50 49 47 45 44 44 43 41 40 39 39 38 37 35 34 33 34 34 34 33 33 32 31 31 30 29 27 27 26 26 27 29 29 28 27 27 29 29 29 27 26 25 25 25 25 25 25 26 27 29 30 30 31 32 34 35 35 36 35 34 33 31 28 26 23 20 17 13 11 10 11 14
37 40 44 46 47 46 46 47 48 48 46 44 43 43 45 45 44 42 42 41 40 39 39 38 39 38 37 36 35 35 35 34 34 34 34 33 32 31 30 30 29 28 27 26 26 27 29 30 29 27 27 28 29 29 27 26 25 25 24 24 24 25 26 27 28 29 30 31 32 33 34 35 36 35 35 33 31 29 26 23 20 17 14 12 10 11 13
Wind_Direction
217 221 220 221 226 229 233 236 237 240 240 239 240 242 243 241 238 237 235 231 225 220 222 224 215 205 204 202 205 212 215 217 227 239 247 249 250 255 259 262 264 264 262 263 264 265 268 273 278 282 283 283 281 279 280 282 284 286 286 287 286 286 285 284 284 283 282 282 282 281 281 281 281 281 281 281 281 280 280 280 280 280 280 280 280 280 280
219 221 220 222 227 230 233 236 238 241 242 241 241 243 244 244 242 241 240 237 231 228 228 228 221 214 211 210 209 208 208 212 222 231 237 243 248 252 257 260 262 264 264 264 265 265 267 274 280 284 285 284 282 281 283 286 289 291 290 290 290 289 287 286 285 284 284 283 283 283 283 283 284 283 283 282 282 282 282 282 282 282 282 282 282 282 282
218 220 220 223 228 230 233 237 239 242 244 243 244 245 246 246 245 242 241 238 231 229 228 224 221 218 214 211 210 208 207 212 223 228 228 235 241 247 254 259 261 263 264 264 264 265 269 275 282 286 287 285 282 283 287 290 292 294 293 293 292 291 289 287 285 284 283 283 283 283 283 283 283 283 283 283 283 283 283 283 283 283 284 284 284 284 284
216 218 218 221 226 228 232 236 239 242 244 244 244 244 244 244 243 241 239 234 228 227 225 222 224 224 218 213 209 209 208 215 230 232 225 228 239 248 257 262 263 265 265 264 264 265 271 278 284 286 287 285 284 286 289 291 293 293 293 293 292 291 289 287 285 284 283 282 282 281 282 282 281 281 282 282 283 283 284 285 285 285 286 286 287 286 286
216 217 216 219 222 224 227 232 235 238 239 239 240 240 240 241 240 238 237 231 225 226 226 223 225 226 220 212 206 205 205 215 235 239 230 233 244 255 261 264 265 265 262 260 262 267 274 279 282 284 284 284 285 288 290 292 294 293 291 291 292 291 288 286 284 283 282 282 281 281 281 281 280 281 281 282 283 285 285 285 285 285 287 288 287 286 286
215 216 217 218 220 222 226 229 231 233 234 235 236 238 239 239 237 237 237 234 230 229 227 220 213 216 214 206 204 208 207 215 236 247 245 246 250 253 256 261 264 263 260 261 265 269 273 278 281 284 285 287 290 295 299 301 300 296 292 294 295 293 289 286 283 283 283 283 282 282 282 282 281 281 281 283 285 286 285 284 284 286 288 288 287 287 286
216 217 218 219 220 221 224 227 229 231 233 234 235 237 237 236 236 235 236 236 233 229 227 221 211 212 214 205 206 214 214 217 232 242 244 248 251 251 253 259 261 261 264 267 268 268 272 278 281 285 289 295 302 306 307 306 303 298 295 296 297 295 290 287 285 284 285 284 283 283 283 282 282 282 283 285 286 286 286 286 286 287 288 288 288 288 288
217 217 218 219 220 222 225 228 229 231 234 235 236 237 237 235 236 236 233 235 233 228 227 224 215 214 218 212 210 217 218 219 227 235 239 246 252 252 252 255 256 259 264 266 265 268 274 279 285 295 303 308 311 313 312 308 304 301 297 297 297 294 289 288 287 286 285 285 284 283 282 282 283 284 285 285 286 287 288 288 288 289 289 289 289 289 289
217 218 218 219 222 225 228 230 232 233 235 237 237 239 239 237 238 237 233 233 233 228 227 224 217 217 220 216 215 220 220 220 227 236 240 243 246 246 247 251 255 259 263 263 266 274 279 285 297 305 303 298 298 301 301 301 300 298 295 294 296 294 290 288 288 287 286 286 284 282 282 283 285 285 285 287 288 290 290 289 289 290 290 290 291 291 291
216 218 218 220 222 225 227 230 232 235 237 238 239 241 242 240 239 238 234 231 229 228 229 226 220 221 223 221 221 223 223 222 225 234 241 242 241 243 247 251 256 262 265 269 275 279 280 282 282 276 267 262 258 258 267 283 293 292 290 290 290 290 289 289 288 287 286 284 283 283 283 284 285 287 289 291 291 291 290 290 290 291 292 292 293 293 294
213 216 218 219 221 224 227 228 230 233 236 239 242 244 244 243 243 240 236 233 231 231 232 228 224 225 224 222 223 225 228 230 227 229 239 245 246 249 252 254 259 265 270 278 285 286 283 277 268 261 260 259 255 252 260 273 279 281 283 285 286 288 288 286 286 287 285 284 284 285 286 287 288 290 292 292 291 291 291 292 293 293 294 295 295 296 296
213 214 216 218 221 225 228 231 232 236 240 243 247 249 247 245 243 241 238 235 233 235 236 233 228 227 223 221 225 229 234 240 238 236 243 252 253 254 256 258 263 270 275 279 282 281 277 269 262 261 261 259 255 254 258 258 259 267 274 278 283 287 287 285 285 286 286 286 288 289 290 290 291 292 292 292 293 293 294 294 295 296 297 298 298 297 297
215 214 214 216 219 223 225 227 231 236 241 244 246 247 246 244 242 241 240 238 235 237 240 235 228 225 222 224 232 237 240 245 249 248 250 253 252 252 255 260 264 269 266 257 256 259 259 258 258 259 260 260 260 260 259 257 260 266 270 274 281 285 285 284 285 286 287 288 290 291 291 292 292 293 294 295 295 296 297 298 298 299 299 299 299 299 299
217 216 213 212 216 221 223 226 229 232 235 239 241 242 243 245 246 243 241 241 240 241 243 238 233 230 227 227 234 242 245 249 253 255 255 253 249 247 251 255 260 265 262 254 251 254 254 255 256 257 260 267 270 267 264 264 264 264 267 273 280 282 283 284 286 287 288 289 290 291 291 292 294 295 296 297 298 299 300 300 300 300 301 301 301 301 301
218 218 213 210 213 219 222 225 229 232 232 235 241 244 246 250 252 248 244 244 243 245 246 243 241 241 238 235 237 242 244 247 252 256 256 255 254 253 253 256 260 264 264 261 261 261 258 256 258 261 266 273 274 271 268 268 266 266 269 273 278 281 284 286 288 289 291 291 291 292 293 295 296 297 298 300 301 302 302 302 302 302 302 303 303 302 301
220 222 218 215 216 220 222 224 229 234 237 240 248 254 254 252 252 249 247 247 248 250 250 249 249 251 251 246 243 243 243 245 246 247 247 252 258 261 260 260 263 269 274 273 267 260 257 257 261 265 269 273 273 271 270 270 269 271 273 275 278 281 285 288 290 291 292 292 293 295 296 297 299 300 301 303 303 303 303 303 303 304 303 303 303 302 302
220 219 213 210 219 226 227 229 235 241 242 241 245 249 247 247 252 256 257 257 256 255 256 258 260 260 254 246 241 241 244 247 249 248 248 250 255 255 253 257 262 269 278 270 256 251 254 259 264 269 272 273 273 272 272 271 271 273 275 279 282 285 288 290 291 292 293 294 295 297 298 300 301 303 304 304 305 305 305 305 305 305 305 305 305 304 304
216 211 194 187 217 239 238 234 236 237 232 226 230 238 244 256 269 275 274 266 256 251 253 259 262 260 253 245 241 241 242 245 248 250 251 253 255 250 244 247 247 237 233 242 248 253 261 267 270 272 273 274 274 274 274 274 275 277 280 283 286 287 289 290 292 293 295 297 298 300 301 303 304 305 306 306 306 306 305 306 306 306 306 306 305 305 305
193 190 174 166 195 237 243 237 232 229 228 230 240 256 267 271 274 275 272 266 257 245 241 246 252 256 257 254 249 246 244 243 245 250 252 252 250 244 235 235 238 234 234 243 253 261 267 270 272 273 274 274 275 277 278 279 280 282 284 286 287 289 291 293 294 296 298 299 301 303 304 305 305 306 306 306 306 306 306 307 307 307 307 306 306 306 306
169 170 167 170 189 213 227 229 225 224 228 235 250 269 276 273 271 270 266 263 260 252 245 245 248 249 250 253 256 257 255 251 247 247 245 238 234 236 237 239 243 247 250 256 261 265 268 270 272 273 274 275 277 279 280 282 284 285 287 288 290 292 294 295 297 299 301 303 305 306 306 306 306 306 306 307 307 307 308 308 308 308 308 307 307 307 306
170 171 173 182 198 209 213 212 213 213 214 226 265 283 282 275 275 282 279 276 274 269 262 258 258 255 252 253 257 262 262 259 254 250 247 244 244 249 251 252 253 256 259 262 264 266 269 270 272 273 275 277 280 281 283 285 286 288 290 291 293 294 296 297 299 302 304 306 307 307 307 307 306 307 307 308 309 310 310 310 310 309 309 308 308 307 307
187 184 183 191 203 210 208 200 192 187 186 204 247 264 264 257 252 258 266 270 271 267 261 258 259 260 257 254 255 256 257 258 259 259 257 257 256 257 258 258 259 261 262 264 267 269 270 272 273 275 278 280 282 284 286 287 289 290 292 293 295 296 297 299 302 304 306 307 307 307 307 307 307 308 309 310 310 311 311 311 311 310 310 309 309 309 310
201 194 192 199 205 208 205 194 184 183 188 198 213 226 233 237 239 240 243 248 254 258 260 258 256 257 259 257 255 255 255 256 258 260 261 262 262 261 262 262 263 264 265 267 269 270 272 274 276 278 281 283 285 287 288 290 291 292 293 295 296 297 300 302 304 306 307 308 307 307 307 307 308 309 310 311 311 311 311 312 311 311 311 311 312 313 314
199 193 195 204 205 203 201 192 186 191 197 201 210 223 230 231 234 238 237 235 241 250 258 258 253 254 259 259 258 258 258 257 258 259 263 267 269 268 267 267 267 268 269 270 271 273 275 277 280 282 284 285 287 289 290 292 293 294 296 297 298 300 302 304 306 307 308 308 308 307 308 309 310 311 311 312 312 313 313 313 312 313 314 315 315 316 317
197 195 200 207 207 204 204 202 199 200 202 204 211 220 224 224 228 233 232 232 236 242 246 248 251 254 258 259 258 257 257 258 260 262 266 270 271 271 270 270 271 271 273 274 276 278 279 281 283 284 286 288 290 292 293 295 296 297 298 300 301 303 305 306 308 309 309 309 308 309 310 311 312 312 312 313 314 314 314 314 315 316 317 318 318 319 319
199 202 204 207 205 201 202 207 208 206 209 214 218 221 223 226 227 227 229 232 236 239 243 251 258 260 260 258 256 254 254 258 263 267 269 270 271 271 272 273 274 275 276 278 279 280 282 283 285 287 288 291 293 295 296 298 299 299 301 302 303 305 306 308 309 309 309 309 309 310 312 312 312 312 313 314 315 315 316 317 319 320 320 320 320 321 321
201 205 204 204 202 198 202 212 216 215 216 221 227 231 233 233 231 228 228 232 238 245 252 258 262 264 264 262 259 258 259 263 266 267 268 270 271 272 273 274 275 276 277 278 280 281 284 285 287 289 291 293 296 298 299 300 300 301 302 303 305 306 307 308 309 309 309 309 310 311 312 312 313 314 315 316 316 316 318 320 321 321 321 321 322 322 321
202 205 206 208 208 208 212 219 222 223 223 222 225 232 233 229 228 227 222 221 231 245 253 256 259 264 267 266 263 261 262 264 266 268 269 271 273 274 275 275 277 278 280 282 284 285 287 289 290 292 294 296 298 300 300 301 301 302 303 304 306 307 308 308 308 308 309 310 311 312 313 314 315 315 316 316 317 318 320 321 322 322 322 322 322 322 321
204 207 207 210 213 215 220 223 224 225 226 223 224 229 228 224 226 229 225 221 225 236 247 254 260 267 269 266 263 262 263 266 269 272 274 275 276 277 279 280 282 284 286 288 289 291 292 293 294 296 298 300 301 302 301 302 302 303 304 305 307 307 307 308 308 309 310 311 312 313 314 315 316 317 317 317 318 320 322 323 323 323 322 322 322 322 321
208 210 209 209 211 215 222 226 225 223 223 222 222 223 225 227 233 236 230 224 226 235 248 256 261 266 269 268 266 266 269 273 276 277 279 281 281 282 284 286 288 290 291 292 293 293 294 295 297 298 301 303 303 303 302 302 303 304 305 306 307 308 307 308 309 310 311 312 313 314 316 316 317 317 318 319 321 322 323 324 324 323 322 321 321 321 320
209 215 214 212 213 216 222 228 228 225 223 222 220 221 226 232 235 233 229 230 236 244 251 255 258 265 270 270 269 270 274 277 280 282 283 284 284 285 288 290 291 292 293 293 293 294 295 297 299 301 303 304 303 303 303 303 303 304 305 306 307 307 307 308 310 311 312 312 314 316 317 317 317 318 319 321 323 324 325 325 324 322 322 321 321 321 321
207 214 215 214 215 216 219 224 226 224 221 218 217 221 226 230 229 230 235 241 245 247 249 252 258 266 270 270 270 272 276 279 281 284 285 286 287 289 291 292 293 292 292 292 293 295 297 299 301 303 304 304 304 303 303 303 303 304 305 306 307 307 308 309 311 311 312 313 315 317 317 317 318 320 322 323 323 324 325 324 323 322 322 322 322 322 322
209 214 215 217 221 220 218 219 220 217 214 213 215 220 223 225 228 233 241 245 246 246 249 254 261 267 270 270 270 273 277 279 282 284 286 288 290 293 294 294 294 293 293 294 295 297 299 300 302 304 304 304 303 303 303 303 303 303 304 305 306 307 308 310 311 312 313 315 316 317 317 318 320 322 323 323 324 325 325 324 323 323 323 323 323 322 323
213 216 214 216 221 221 217 216 216 213 212 214 217 219 222 225 228 232 237 243 247 250 254 260 264 267 269 270 271 274 278 281 282 284 286 288 290 292 294 294 293 293 294 296 297 299 301 303 304 304 304 303 303 303 303 302 302 302 303 304 305 307 308 310 311 312 314 315 316 317 318 320 322 323 324 324 324 324 324 324 324 324 324 325 323 322 327
215 217 215 216 219 220 217 216 216 214 214 216 218 219 222 225 226 229 236 244 250 253 256 260 264 266 268 272 275 277 279 280 282 284 286 288 290 292 293 293 292 293 295 297 299 301 303 304 305 304 304 304 304 303 302 301 301 302 303 305 306 307 309 310 311 313 314 315 317 318 320 322 323 324 324 324 324 324 325 326 326 326 326 326 323 323 336
212 215 215 216 219 222 222 221 219 217 217 219 219 220 221 221 222 226 236 245 250 252 254 257 260 262 266 272 276 277 278 280 282 284 286 289 291 293 293 293 294 295 298 300 302 303 304 304 304 304 304 304 304 302 301 301 301 302 304 305 307 308 310 311 312 313 314 316 318 320 322 323 324 325 325 324 324 325 327 328 328 327 328 325 322 327 348
211 213 212 212 217 223 225 223 221 219 219 220 220 220 219 219 221 226 236 244 250 253 255 257 258 261 267 273 275 275 277 280 283 285 287 290 292 293 294 294 296 298 300 302 303 304 304 303 303 303 304 303 302 301 301 301 303 304 306 307 309 310 311 312 313 314 316 318 320 322 323 324 325 325 325 325 326 327 329 330 329 329 328 325 322 331 9
211 212 211 213 218 224 224 222 220 218 218 219 220 221 223 225 227 231 235 241 247 252 255 258 261 265 270 273 273 274 278 281 284 286 289 290 292 293 294 295 297 299 301 303 303 303 303 302 302 303 303 302 301 302 303 304 306 307 309 310 311 311 311 312 313 315 318 320 322 323 324 325 326 325 325 326 328 330 331 331 329 329 328 323 320 332 96
211 212 212 214 219 225 226 223 220 218 217 217 218 220 225 229 233 236 239 242 247 251 255 259 263 267 270 272 275 278 282 284 286 288 290 291 292 293 294 296 298 300 301 302 302 301 301 301 302 303 303 303 303 304 306 308 310 311 311 312 312 312 312 313 315 317 320 321 323 324 325 326 326 326 327 329 330 332 332 331 330 330 329 322 312 283 138
213 213 213 215 218 223 226 225 221 219 219 220 221 223 227 232 237 242 245 247 250 254 256 259 262 266 270 274 279 283 285 286 287 288 289 291 292 293 294 296 298 299 300 300 299 298 299 300 301 302 303 304 306 308 310 312 313 313 313 313 312 312 313 315 317 319 321 322 324 325 326 327 327 328 330 331 332 333 333 332 330 330 328 317 294 188 153
214 214 214 215 217 220 224 225 222 220 221 225 228 231 233 237 242 246 248 251 255 256 257 258 261 266 272 277 281 283 285 285 286 287 289 290 292 293 294 296 297 298 298 298 297 297 298 298 300 301 303 306 308 311 313 314 314 313 313 313 312 313 314 316 318 320 322 324 326 327 328 328 329 330 332 333 333 334 334 333 331 331 327 310 270 184 161
213 212 213 216 219 222 226 225 222 220 222 228 234 239 241 243 245 247 250 254 259 259 258 260 265 269 273 276 278 279 281 283 284 287 289 291 292 294 295 296 296 296 296 296 296 296 296 296 298 301 304 307 310 313 314 314 314 314 314 313 313 314 316 317 319 321 323 325 327 328 328 329 331 332 333 334 334 335 336 335 332 330 326 305 250 189 170
212 213 215 217 219 222 227 226 222 220 223 229 235 241 244 245 246 247 250 255 259 261 262 266 270 272 273 274 275 277 279 281 284 287 290 291 293 294 294 295 296 296 296 296 296 295 294 295 298 302 305 309 312 315 315 314 314 314 313 313 313 315 316 318 321 323 325 327 328 329 329 331 333 334 335 335 336 336 337 336 332 329 324 297 237 196 178
210 213 216 215 211 212 224 230 228 225 227 232 236 240 244 246 246 248 250 256 261 265 268 270 270 271 271 273 275 276 278 280 283 287 290 291 292 293 293 294 296 296 296 296 295 294 294 297 300 304 309 313 316 316 316 315 315 314 313 313 314 315 317 319 322 324 326 328 329 329 330 332 334 335 336 337 337 337 337 336 333 329 321 294 239 204 186
209 211 213 212 207 208 219 231 232 231 233 235 237 239 243 246 249 250 254 258 262 264 265 267 269 270 270 272 274 276 278 280 283 287 289 290 290 291 293 294 294 294 294 294 293 294 296 300 303 308 313 316 317 316 315 315 315 314 313 313 314 316 318 321 323 326 328 329 329 330 332 334 336 337 337 338 338 338 338 337 334 329 320 294 243 212 195
212 212 213 213 211 212 220 229 234 235 236 238 239 241 244 248 252 254 256 257 259 261 264 267 269 270 271 272 273 276 278 281 283 286 288 288 289 290 292 292 292 291 290 290 291 294 298 302 306 311 316 318 317 316 315 314 314 313 313 313 314 317 319 322 325 327 329 329 329 331 333 335 337 338 338 339 339 339 338 337 334 329 318 293 249 218 202
214 215 216 214 213 214 221 229 235 238 240 242 244 246 249 251 254 255 255 255 257 262 267 268 268 268 270 272 274 276 279 281 284 285 286 287 289 290 291 290 289 288 286 287 290 294 299 303 308 313 317 318 317 316 314 314 313 312 312 314 316 318 321 324 326 328 329 329 330 332 334 336 339 339 339 340 340 340 339 337 335 329 319 295 256 225 209
216 218 219 218 216 217 223 231 237 241 242 243 246 250 253 255 255 254 254 255 258 263 265 266 267 268 270 272 275 277 280 282 284 285 286 287 288 289 289 289 287 285 284 286 290 294 299 304 308 313 317 319 318 315 314 313 312 312 313 314 317 318 321 324 327 328 329 330 331 333 335 338 340 341 341 341 342 341 340 339 335 329 319 297 260 231 215
220 220 222 223 224 224 228 234 240 244 245 246 248 250 252 253 252 251 251 254 258 261 263 265 268 270 271 273 275 277 279 281 282 284 286 287 287 287 287 285 283 283 284 286 290 295 299 303 307 312 317 320 319 316 313 312 312 311 312 314 316 319 322 325 327 328 329 331 333 334 336 339 341 342 342 343 343 343 342 340 336 330 320 299 265 238 222
226 225 226 228 231 231 233 236 240 243 245 247 248 248 249 250 251 252 253 255 259 262 264 266 268 270 271 272 274 276 277 280 282 284 286 286 286 285 283 282 281 282 283 286 290 295 299 302 305 311 317 320 319 316 313 312 311 311 312 314 317 320 323 326 328 329 330 332 334 336 338 340 342 343 344 345 345 344 343 342 338 333 322 302 272 246 230
227 226 224 225 228 231 233 236 240 244 246 247 249 250 252 253 254 255 255 257 258 260 261 264 267 268 270 271 272 274 277 280 283 284 285 285 284 282 280 280 280 281 282 285 288 293 297 300 304 309 316 320 319 315 312 310 310 311 312 315 318 321 324 326 328 329 331 333 335 337 339 341 343 344 345 346 347 346 345 343 340 335 326 309 281 255 238
224 226 224 223 226 230 234 237 242 247 250 250 250 251 252 253 253 253 253 254 255 256 258 261 263 265 267 270 272 274 277 280 282 284 284 284 282 279 278 277 278 280 281 283 286 291 296 299 302 307 315 320 319 314 310 309 310 311 313 315 318 321 324 326 327 329 332 334 337 339 341 342 344 345 346 348 348 348 347 345 343 339 332 318 293 267 248
Height
10843 10845 10851 10856 10857 10859 10862 10866 10869 10871 10873 10876 10878 10879 10881 10884 10887 10889 10891 10892 10895 10896 10897 10898 10901 10902 10902 10903 10904 10905 10906 10906 10906 10905 10905 10907 10908 10907 10907 10908 10908 10909 10909 10910 10911 10911 10911 10912 10912 10912 10912 10912 10912 10911 10910 10910 10909 10909 10908 10907 10906 10905 10904 10902 10901 10900 10899 10897 10896 10894 10893 10892 10891 10889 10888 10886 10884 10882 10880 10878 10877 10875 10873 10871 10869 10867 10865
10840 10844 10850 10853 10854 10857 10861 10863 10866 10869 10871 10874 10875 10877 10879 10882 10884 10887 10888 10890 10893 10894 10896 10898 10900 10900 10900 10900 10901 10902 10903 10903 10902 10901 10902 10903 10903 10902 10903 10903 10904 10905 10906 10907 10908 10908 10909 10909 10909 10909 10908 10909 10909 10908 10908 10907 10906 10905 10904 10903 10902 10901 10900 10898 10896 10895 10893 10892 10890 10888 10887 10885 10884 10882 10880 10879 10877 10875 10874 10872 10870 10868 10865 10864 10862 10859 10857
10838 10843 10847 10849 10851 10855 10858 10861 10864 10867 10869 10872 10873 10875 10877 10879 10881 10884 10885 10887 10890 10892 10895 10896 10896 10896 10897 10897 10897 10898 10898 10897 10896 10896 10897 10898 10898 10899 10900 10900 10901 10902 10903 10904 10904 10905 10905 10905 10905 10905 10905 10905 10906 10906 10905 10905 10904 10903 10901 10900 10899 10897 10896 10893 10891 10890 10888 10886 10884 10882 10881 10879 10877 10875 10873 10871 10870 10868 10866 10864 10862 10860 10858 10856 10854 10852 10849
10835 10839 10843 10845 10848 10851 10855 10858 10861 10864 10867 10869 10870 10872 10874 10876 10878 10880 10881 10884 10888 10891 10893 10893 10893 10894 10895 10895 10896 10895 10894 10892 10888 10887 10890 10894 10895 10898 10899 10899 10899 10900 10900 10900 10901 10901 10902 10902 10902 10902 10902 10903 10903 10903 10902 10902 10901 10899 10898 10896 10895 10894 10892 10889 10887 10885 10883 10881 10879 10877 10875 10873 10871 10869 10867 10865 10863 10861 10859 10857 10855 10853 10851 10849 10846 10843 10841
10831 10835 10838 10840 10843 10848 10852 10855 10858 10860 10863 10865 10867 10868 10871 10873 10875 10875 10876 10881 10887 10889 10890 10891 10893 10894 10894 10894 10895 10893 10891 10889 10884 10882 10887 10892 10895 10896 10896 10896 10896 10897 10896 10896 10897 10898 10898 10898 10899 10900 10901 10901 10900 10900 10900 10899 10898 10896 10894 10893 10892 10890 10889 10886 10883 10880 10877 10875 10873 10871 10869 10867 10865 10863 10861 10859 10857 10854 10852 10850 10848 10846 10843 10841 10838 10835 10833
10827 10830 10834 10837 10842 10847 10849 10851 10853 10856 10859 10861 10863 10865 10868 10870 10870 10871 10875 10881 10885 10885 10886 10889 10890 10890 10889 10890 10890 10888 10887 10887 10884 10883 10887 10890 10890 10890 10890 10890 10891 10891 10892 10893 10893 10894 10895 10896 10898 10899 10899 10900 10900 10898 10897 10896 10894 10892 10890 10888 10887 10886 10884 10881 10878 10875 10872 10870 10868 10865 10863 10861 10859 10857 10854 10852 10850 10848 10845 10843 10841 10839 10836 10834 10831 10828 10825
10823 10827 10832 10836 10841 10843 10844 10846 10850 10853 10856 10858 10861 10863 10864 10865 10866 10870 10876 10879 10879 10880 10883 10885 10886 10885 10885 10887 10886 10884 10885 10886 10885 10883 10884 10885 10885 10885 10886 10886 10887 10888 10889 10890 10891 10892 10895 10897 10898 10899 10899 10899 10897 10894 10892 10889 10887 10885 10883 10882 10881 10880 10878 10876 10873 10870 10867 10864 10862 10860 10857 10854 10852 10850 10848 10846 10844 10841 10838 10836 10834 10831 10828 10826 10823 10820 10817
10821 10826 10830 10833 10836 10838 10840 10844 10848 10851 10853 10855 10858 10858 10859 10862 10866 10870 10874 10875 10874 10877 10881 10882 10883 10882 10882 10884 10883 10882 10883 10884 10882 10881 10881 10882 10882 10882 10884 10884 10885 10887 10889 10890 10891 10894 10897 10899 10900 10901 10900 10899 10896 10892 10887 10882 10878 10876 10875 10875 10874 10873 10872 10870 10867 10864 10861 10859 10857 10854 10851 10848 10846 10844 10841 10839 10837 10834 10831 10828 10826 10823 10821 10818 10814 10811 10808
10819 10823 10827 10830 10833 10836 10840 10843 10846 10848 10850 10852 10854 10854 10857 10863 10866 10868 10870 10871 10873 10875 10877 10878 10880 10879 10879 10880 10880 10879 10881 10882 10881 10880 10880 10879 10878 10879 10882 10883 10884 10887 10888 10889 10891 10894 10899 10904 10906 10906 10904 10901 10900 10896 10886 10877 10872 10869 10869 10869 10868 10867 10866 10864 10862 10859 10856 10853 10850 10847 10845 10842 10840 10837 10835 10833 10831 10828 10824 10821 10818 10815 10812 10809 10805 10802 10799
10816 10820 10824 10827 10831 10834 10836 10839 10843 10845 10847 10849 10851 10853 10857 10862 10863 10864 10867 10868 10870 10872 10871 10874 10876 10876 10876 10877 10878 10878 10878 10879 10880 10879 10877 10875 10875 10877 10881 10883 10884 10886 10887 10888 10890 10893 10899 10903 10904 10902 10899 10896 10894 10890 10883 10878 10874 10868 10865 10864 10862 10861 10861 10859 10856 10853 10850 10847 10844 10841 10839 10836 10834 10831 10829 10827 10824 10821 10817 10814 10810 10807 10804 10800 10796 10793 10790
10813 10817 10821 10825 10828 10831 10834 10837 10841 10843 10844 10847 10850 10852 10856 10859 10859 10861 10863 10865 10867 10867 10866 10870 10873 10873 10875 10876 10875 10875 10875 10875 10878 10880 10877 10875 10875 10877 10881 10883 10884 10885 10885 10883 10882 10885 10891 10894 10894 10892 10891 10890 10889 10886 10883 10881 10875 10866 10860 10857 10856 10855 10855 10853 10850 10847 10844 10841 10838 10836 10833 10830 10828 10825 10822 10820 10817 10813 10810 10806 10802 10798 10795 10792 10787 10783 10780
10810 10814 10818 10822 10825 10829 10833 10836 10839 10841 10844 10847 10849 10851 10854 10856 10856 10857 10861 10863 10864 10862 10863 10869 10872 10871 10872 10873 10871 10871 10873 10873 10876 10879 10878 10876 10875 10877 10878 10879 10879 10882 10883 10883 10882 10885 10889 10891 10891 10889 10887 10886 10886 10884 10881 10877 10870 10862 10856 10852 10851 10851 10850 10847 10844 10841 10838 10836 10833 10829 10826 10823 10821 10818 10816 10812 10809 10805 10801 10797 10793 10789 10786 10783 10778 10774 10770
10809 10812 10816 10820 10824 10827 10830 10833 10837 10840 10843 10845 10846 10848 10851 10852 10852 10855 10859 10860 10861 10860 10863 10868 10871 10870 10871 10871 10868 10869 10872 10872 10873 10876 10878 10877 10875 10874 10873 10873 10875 10878 10882 10886 10889 10890 10889 10888 10885 10883 10881 10881 10881 10880 10877 10872 10865 10859 10854 10850 10849 10848 10845 10842 10839 10835 10833 10830 10826 10823 10820 10817 10814 10811 10808 10804 10800 10796 10792 10788 10784 10780 10777 10773 10769 10765 10760
10807 10809 10814 10818 10822 10825 10828 10831 10835 10837 10839 10841 10842 10844 10847 10849 10850 10854 10856 10857 10858 10860 10862 10865 10867 10867 10869 10870 10867 10867 10869 10870 10870 10871 10873 10874 10874 10873 10872 10871 10872 10874 10876 10879 10881 10882 10880 10878 10875 10873 10873 10873 10872 10872 10870 10866 10861 10856 10852 10849 10847 10843 10840 10838 10834 10830 10827 10824 10820 10817 10814 10810 10806 10803 10799 10795 10791 10787 10783 10779 10775 10771 10767 10763 10759 10754 10750
10804 10807 10812 10816 10820 10823 10827 10831 10832 10834 10836 10837 10839 10842 10846 10848 10849 10850 10852 10854 10856 10858 10859 10861 10863 10865 10866 10867 10866 10865 10867 10869 10867 10866 10866 10868 10869 10870 10870 10869 10870 10870 10870 10869 10869 10869 10867 10866 10865 10864 10863 10863 10863 10862 10861 10858 10855 10852 10849 10846 10843 10839 10835 10832 10828 10824 10821 10817 10813 10810 10806 10802 10798 10794 10790 10787 10783 10779 10774 10770 10766 10762 10758 10754 10749 10745 10740
10804 10808 10813 10817 10821 10823 10825 10828 10830 10832 10834 10836 10838 10841 10844 10845 10845 10847 10850 10854 10855 10855 10857 10858 10860 10862 10864 10863 10862 10862 10864 10865 10865 10863 10863 10863 10864 10865 10865 10865 10866 10865 10862 10860 10859 10859 10857 10857 10856 10856 10857 10856 10856 10855 10853 10851 10849 10846 10843 10840 10837 10833 10829 10825 10820 10817 10813 10809 10806 10802 10798 10795 10790 10786 10783 10779 10774 10770 10766 10762 10758 10754 10749 10745 10741 10736 10730
10803 10807 10812 10817 10821 10823 10825 10827 10830 10832 10834 10836 10837 10838 10839 10840 10842 10846 10850 10853 10855 10854 10854 10854 10855 10857 10858 10858 10858 10858 10859 10859 10859 10859 10859 10858 10859 10860 10859 10858 10859 10860 10860 10859 10856 10853 10852 10851 10851 10851 10851 10851 10850 10848 10847 10846 10844 10840 10836 10832 10829 10825 10821 10817 10813 10809 10806 10802 10798 10794 10791 10787 10783 10779 10775 10771 10766 10762 10757 10753 10749 10745 10741 10736 10731 10726 10721
10801 10804 10809 10815 10821 10825 10826 10827 10830 10832 10833 10835 10836 10837 10839 10841 10842 10845 10848 10851 10853 10853 10852 10851 10849 10849 10850 10852 10853 10854 10854 10855 10855 10855 10855 10855 10856 10857 10854 10852 10853 10856 10859 10857 10851 10848 10847 10847 10846 10846 10845 10844 10843 10842 10840 10838 10836 10833 10829 10825 10821 10817 10814 10810 10806 10802 10798 10794 10791 10787 10784 10780 10776 10772 10767 10763 10759 10755 10750 10746 10741 10737 10732 10728 10723 10718 10713
10800 10804 10809 10814 10821 10825 10825 10826 10829 10832 10833 10835 10837 10839 10842 10843 10844 10846 10847 10848 10850 10852 10852 10850 10847 10845 10845 10846 10847 10848 10849 10851 10852 10852 10852 10852 10853 10853 10852 10850 10850 10852 10852 10849 10846 10844 10843 10842 10842 10841 10839 10838 10836 10834 10832 10829 10827 10824 10821 10817 10814 10810 10806 10802 10798 10794 10791 10787 10783 10780 10777 10773 10769 10765 10761 10757 10753 10748 10744 10739 10734 10730 10725 10720 10715 10711 10705
10798 10804 10808 10810 10814 10818 10820 10823 10827 10830 10832 10834 10836 10839 10842 10844 10846 10847 10848 10849 10850 10852 10852 10851 10848 10846 10845 10844 10844 10844 10845 10846 10847 10848 10848 10848 10849 10849 10848 10848 10847 10846 10845 10844 10842 10841 10839 10837 10837 10835 10833 10832 10830 10827 10824 10821 10819 10816 10813 10810 10806 10803 10799 10795 10791 10787 10784 10780 10776 10772 10768 10765 10762 10758 10753 10749 10745 10740 10736 10732 10727 10722 10717 10713 10708 10704 10699
10795 10799 10804 10806 10807 10809 10814 10820 10825 10828 10831 10833 10835 10839 10843 10845 10847 10849 10850 10850 10850 10851 10852 10852 10850 10847 10844 10843 10842 10841 10841 10841 10841 10841 10842 10842 10843 10843 10842 10842 10841 10840 10839 10838 10837 10836 10834 10833 10831 10829 10827 10825 10823 10820 10817 10814 10811 10808 10805 10802 10799 10795 10791 10788 10784 10781 10777 10773 10769 10765 10761 10757 10753 10750 10746 10742 10737 10732 10728 10724 10719 10715 10711 10706 10702 10697 10692
10791 10795 10800 10803 10803 10806 10812 10819 10822 10825 10828 10833 10838 10845 10848 10849 10851 10854 10854 10853 10851 10850 10850 10850 10847 10842 10839 10838 10838 10837 10837 10836 10836 10836 10836 10836 10836 10836 10836 10835 10835 10834 10834 10832 10831 10830 10829 10827 10825 10823 10821 10818 10815 10812 10809 10807 10804 10801 10798 10795 10792 10788 10785 10781 10778 10775 10771 10767 10763 10759 10754 10750 10746 10742 10739 10734 10730 10725 10720 10716 10712 10708 10704 10699 10695 10691 10686
10787 10793 10798 10801 10803 10807 10813 10817 10818 10820 10825 10833 10842 10847 10848 10849 10851 10853 10853 10854 10851 10845 10842 10843 10842 10837 10833 10832 10832 10832 10831 10831 10831 10831 10831 10831 10831 10831 10830 10830 10829 10829 10828 10827 10826 10825 10823 10821 10818 10816 10813 10810 10808 10805 10802 10800 10797 10795 10791 10788 10785 10782 10778 10775 10771 10768 10765 10761 10757 10753 10748 10744 10740 10735 10731 10726 10723 10719 10714 10709 10705 10701 10697 10692 10687 10683 10679
10784 10790 10795 10799 10803 10806 10810 10812 10814 10817 10822 10830 10837 10840 10841 10845 10846 10845 10844 10845 10842 10837 10835 10837 10836 10832 10828 10827 10826 10826 10826 10826 10826 10826 10826 10826 10826 10826 10825 10824 10824 10823 10822 10821 10820 10818 10816 10814 10811 10808 10806 10803 10801 10799 10797 10794 10791 10788 10785 10781 10778 10775 10772 10768 10765 10761 10758 10754 10750 10746 10742 10738 10734 10729 10724 10719 10715 10711 10707 10703 10698 10694 10690 10685 10680 10675 10671
10782 10786 10790 10794 10798 10802 10805 10806 10808 10812 10816 10822 10825 10827 10830 10834 10835 10832 10831 10832 10831 10830 10830 10831 10829 10827 10824 10822 10822 10821 10822 10822 10821 10822 10822 10821 10821 10820 10820 10819 10818 10817 10816 10815 10813 10811 10809 10807 10805 10802 10800 10797 10795 10793 10790 10787 10784 10781 10778 10774 10771 10768 10765 10762 10758 10754 10751 10747 10743 10739 10736 10732 10727 10723 10718 10713 10708 10703 10699 10695 10691 10687 10683 10678 10673 10669 10664
10779 10782 10786 10789 10792 10796 10799 10801 10804 10810 10814 10815 10817 10819 10821 10822 10821 10820 10821 10823 10823 10823 10822 10822 10821 10820 10820 10819 10819 10819 10818 10818 10818 10817 10817 10816 10815 10815 10814 10813 10812 10811 10810 10808 10807 10805 10803 10801 10799 10796 10794 10792 10789 10786 10784 10781 10778 10774 10771 10768 10765 10762 10759 10756 10752 10748 10745 10741 10737 10733 10729 10725 10721 10717 10712 10708 10703 10698 10693 10688 10684 10679 10675 10671 10667 10663 10657
10775 10778 10782 10785 10788 10791 10793 10796 10800 10805 10808 10809 10812 10815 10816 10817 10817 10817 10817 10818 10817 10815 10813 10811 10812 10813 10814 10815 10815 10815 10814 10814 10813 10812 10812 10811 10810 10809 10808 10807 10806 10805 10803 10802 10801 10799 10797 10795 10792 10790 10788 10786 10783 10780 10777 10774 10771 10768 10765 10762 10759 10755 10752 10749 10746 10743 10739 10735 10731 10728 10724 10720 10715 10711 10707 10702 10698 10694 10689 10684 10680 10674 10669 10665 10662 10658 10652
10772 10774 10778 10781 10784 10786 10788 10790 10794 10798 10801 10804 10807 10809 10810 10812 10814 10814 10813 10814 10813 10810 10808 10806 10807 10808 10810 10811 10811 10810 10809 10809 10808 10807 10806 10806 10805 10804 10803 10801 10800 10799 10797 10796 10794 10793 10790 10788 10786 10783 10781 10779 10777 10774 10771 10767 10764 10762 10759 10756 10754 10750 10746 10743 10740 10737 10733 10730 10726 10722 10718 10714 10710 10705 10701 10697 10693 10689 10684 10680 10676 10671 10665 10660 10657 10653 10649
10768 10771 10774 10777 10780 10783 10784 10785 10789 10793 10796 10800 10803 10804 10805 10807 10808 10808 10809 10809 10808 10806 10804 10803 10804 10805 10805 10805 10805 10805 10805 10804 10803 10802 10801 10800 10799 10798 10797 10796 10795 10793 10792 10790 10788 10786 10784 10781 10779 10776 10774 10773 10771 10768 10764 10761 10758 10755 10753 10751 10749 10745 10741 10737 10734 10731 10727 10724 10720 10716 10712 10708 10704 10700 10696 10692 10688 10684 10680 10676 10671 10666 10661 10656 10652 10649 10645
10764 10767 10769 10773 10776 10780 10780 10781 10784 10790 10793 10795 10798 10800 10801 10803 10804 10804 10804 10804 10803 10802 10800 10800 10800 10800 10800 10801 10801 10800 10800 10799 10797 10796 10795 10794 10793 10792 10791 10790 10789 10788 10786 10784 10782 10780 10777 10775 10773 10771 10768 10766 10764 10761 10758 10756 10753 10750 10747 10744 10742 10740 10736 10732 10729 10725 10722 10718 10714 10711 10707 10703 10699 10695 10691 10687 10683 10679 10675 10671 10667 10662 10658 10653 10649 10645 10642
10759 10762 10765 10768 10771 10774 10775 10777 10782 10787 10790 10792 10795 10797 10798 10799 10800 10801 10800 10799 10799 10798 10797 10796 10797 10797 10796 10796 10796 10795 10794 10793 10792 10791 10789 10788 10787 10787 10786 10785 10784 10782 10780 10778 10776 10773 10771 10769 10767 10765 10763 10760 10757 10755 10752 10750 10747 10744 10742 10739 10736 10733 10730 10727 10723 10720 10716 10713 10709 10706 10702 10698 10694 10691 10687 10683 10679 10675 10671 10667 10663 10659 10654 10650 10646 10643 10639
10755 10758 10761 10764 10766 10769 10772 10776 10779 10783 10786 10789 10792 10793 10793 10794 10795 10796 10796 10795 10794 10794 10794 10793 10793 10793 10793 10792 10792 10791 10790 10788 10787 10785 10784 10782 10782 10781 10781 10779 10778 10776 10774 10772 10770 10768 10766 10763 10761 10760 10757 10754 10752 10749 10747 10745 10742 10739 10736 10734 10730 10727 10724 10721 10718 10714 10711 10708 10704 10701 10698 10694 10690 10686 10682 10678 10674 10671 10667 10663 10659 10655 10651 10647 10643 10640 10637
10751 10753 10757 10760 10762 10765 10769 10772 10775 10778 10781 10785 10787 10788 10788 10789 10790 10790 10790 10790 10790 10791 10791 10791 10790 10789 10789 10788 10788 10787 10785 10783 10782 10780 10779 10778 10777 10777 10775 10774 10772 10770 10768 10767 10765 10763 10761 10759 10756 10754 10751 10748 10746 10744 10742 10739 10737 10734 10731 10728 10725 10722 10719 10716 10713 10709 10706 10703 10700 10697 10693 10690 10686 10682 10678 10675 10671 10667 10664 10660 10655 10651 10647 10644 10640 10637 10635
10746 10748 10751 10755 10758 10761 10764 10767 10770 10774 10778 10781 10782 10783 10784 10784 10784 10784 10784 10785 10786 10787 10787 10787 10786 10785 10785 10784 10783 10782 10780 10779 10778 10776 10774 10773 10773 10772 10770 10768 10766 10764 10762 10761 10759 10757 10755 10753 10751 10748 10745 10743 10741 10739 10737 10734 10731 10729 10726 10723 10720 10717 10714 10711 10708 10704 10702 10699 10696 10693 10689 10686 10682 10678 10675 10671 10667 10664 10660 10656 10652 10648 10644 10641 10638 10635 10633
10740 10743 10747 10751 10755 10758 10761 10763 10767 10771 10774 10776 10778 10779 10779 10779 10778 10779 10780 10780 10781 10782 10783 10782 10782 10781 10781 10780 10778 10777 10775 10774 10773 10772 10771 10770 10769 10767 10765 10763 10761 10759 10758 10756 10754 10752 10750 10747 10745 10742 10740 10737 10735 10733 10731 10729 10726 10723 10721 10718 10715 10712 10709 10706 10703 10700 10698 10695 10692 10689 10685 10682 10678 10675 10671 10668 10664 10660 10657 10653 10648 10644 10641 10638 10636 10634 10632
10736 10740 10744 10748 10752 10755 10757 10759 10763 10767 10770 10773 10774 10775 10774 10774 10774 10774 10775 10775 10776 10777 10778 10778 10778 10777 10777 10775 10774 10773 10771 10770 10769 10768 10767 10766 10764 10762 10760 10758 10756 10755 10753 10751 10748 10746 10744 10741 10739 10736 10734 10733 10731 10728 10726 10723 10721 10718 10716 10713 10710 10707 10704 10702 10699 10696 10694 10691 10688 10685 10682 10678 10675 10672 10668 10664 10660 10657 10653 10649 10645 10641 10639 10636 10634 10632 10631
10734 10738 10741 10744 10747 10750 10752 10755 10759 10764 10767 10769 10770 10770 10771 10771 10771 10771 10771 10771 10771 10772 10773 10774 10773 10773 10773 10771 10770 10768 10767 10766 10765 10764 10763 10761 10759 10757 10755 10753 10751 10750 10748 10746 10743 10741 10739 10736 10734 10731 10730 10728 10726 10723 10721 10718 10716 10713 10711 10708 10705 10703 10700 10697 10695 10693 10690 10688 10685 10682 10678 10675 10672 10668 10665 10661 10657 10653 10649 10645 10642 10639 10636 10634 10632 10631 10630
10731 10735 10738 10741 10744 10747 10749 10751 10755 10759 10763 10765 10767 10768 10768 10769 10768 10767 10766 10767 10767 10768 10769 10769 10768 10769 10769 10767 10765 10764 10763 10762 10761 10760 10758 10756 10754 10752 10751 10749 10747 10745 10743 10741 10738 10736 10734 10731 10729 10727 10725 10723 10721 10719 10716 10714 10711 10709 10706 10704 10701 10699 10696 10694 10692 10690 10687 10684 10681 10678 10675 10672 10669 10665 10662 10657 10653 10650 10646 10642 10639 10636 10634 10632 10631 10630 10630
10727 10731 10734 10738 10741 10744 10746 10748 10751 10755 10758 10761 10763 10764 10764 10765 10764 10763 10763 10763 10764 10765 10765 10765 10765 10765 10764 10763 10761 10761 10760 10758 10757 10755 10753 10751 10750 10748 10746 10744 10743 10741 10739 10737 10734 10732 10730 10727 10725 10723 10721 10718 10716 10714 10712 10710 10707 10705 10702 10700 10698 10695 10693 10691 10689 10686 10684 10681 10679 10676 10673 10670 10666 10662 10658 10654 10650 10647 10643 10640 10637 10634 10632 10631 10629 10629 10629
10724 10728 10731 10734 10737 10740 10743 10746 10749 10751 10754 10756 10758 10759 10759 10759 10760 10759 10759 10760 10761 10761 10762 10762 10761 10761 10760 10758 10757 10757 10755 10754 10752 10751 10749 10747 10745 10743 10741 10740 10739 10737 10735 10733 10730 10728 10725 10723 10721 10719 10716 10714 10712 10710 10708 10706 10703 10701 10698 10696 10694 10692 10690 10688 10686 10684 10681 10679 10676 10673 10670 10667 10663 10659 10655 10651 10647 10644 10641 10637 10634 10632 10631 10629 10628 10628 10628
10721 10724 10728 10731 10734 10737 10740 10743 10745 10747 10750 10752 10753 10754 10755 10755 10755 10755 10756 10757 10758 10758 10758 10758 10758 10757 10756 10755 10754 10752 10751 10749 10747 10746 10745 10743 10742 10739 10737 10736 10734 10733 10731 10729 10726 10723 10721 10718 10716 10715 10713 10710 10708 10706 10704 10702 10700 10697 10695 10693 10691 10689 10687 10685 10683 10681 10679 10676 10673 10670 10667 10664 10660 10656 10652 10648 10644 10641 10638 10635 10632 10630 10629 10628 10627 10627 10628
10716 10721 10725 10729 10733 10736 10738 10740 10741 10743 10745 10747 10748 10750 10750 10750 10751 10752 10753 10754 10754 10754 10754 10754 10753 10752 10751 10750 10749 10748 10747 10745 10743 10742 10741 10739 10737 10735 10733 10731 10730 10729 10727 10725 10722 10719 10717 10714 10713 10711 10709 10707 10705 10703 10701 10699 10696 10694 10693 10690 10688 10687 10685 10683 10681 10678 10676 10673 10670 10667 10664 10661 10657 10653 10649 10646 10642 10639 10636 10633 10630 10628 10627 10626 10626 10626 10626
10713 10718 10722 10726 10730 10734 10736 10737 10737 10738 10740 10742 10744 10745 10745 10746 10747 10748 10749 10750 10750 10750 10750 10750 10749 10748 10747 10746 10744 10743 10742 10740 10739 10738 10737 10735 10733 10731 10730 10728 10726 10724 10722 10721 10718 10716 10713 10711 10709 10708 10706 10704 10702 10700 10698 10696 10694 10692 10690 10688 10686 10685 10683 10681 10678 10676 10673 10671 10668 10665 10662 10658 10655 10651 10647 10643 10639 10636 10633 10631 10628 10627 10625 10625 10624 10625 10625
10709 10714 10717 10722 10727 10732 10734 10733 10733 10734 10736 10738 10739 10740 10740 10741 10743 10744 10744 10745 10746 10746 10745 10745 10744 10743 10742 10741 10740 10739 10737 10736 10734 10734 10733 10731 10729 10728 10726 10724 10721 10719 10718 10716 10714 10712 10710 10708 10707 10705 10704 10702 10700 10697 10695 10693 10692 10690 10688 10686 10684 10682 10680 10678 10676 10673 10671 10668 10665 10662 10659 10656 10652 10648 10645 10641 10637 10634 10631 10629 10627 10625 10624 10623 10623 10623 10623
10706 10710 10713 10717 10722 10727 10728 10728 10728 10730 10732 10733 10734 10735 10735 10736 10738 10739 10740 10740 10740 10740 10739 10739 10738 10737 10737 10736 10735 10734 10732 10731 10730 10729 10728 10727 10725 10724 10722 10720 10718 10715 10714 10712 10710 10708 10707 10705 10704 10703 10701 10699 10697 10695 10692 10691 10689 10688 10686 10684 10682 10680 10678 10676 10674 10671 10669 10666 10663 10660 10657 10654 10650 10646 10642 10639 10635 10632 10629 10627 10625 10623 10622 10621 10621 10621 10622
10702 10706 10708 10712 10716 10720 10722 10723 10724 10726 10727 10728 10728 10729 10730 10732 10734 10735 10735 10735 10734 10734 10734 10733 10733 10732 10732 10731 10730 10729 10727 10726 10726 10725 10724 10723 10721 10720 10718 10716 10714 10712 10710 10709 10707 10705 10704 10703 10701 10700 10699 10697 10695 10692 10690 10688 10687 10685 10684 10682 10680 10678 10676 10674 10672 10669 10666 10664 10661 10658 10655 10652 10648 10644 10640 10637 10633 10630 10627 10625 10623 10621 10620 10620 10619 10620 10620
10697 10700 10703 10707 10711 10716 10718 10718 10719 10721 10722 10723 10724 10725 10726 10727 10729 10729 10729 10729 10728 10728 10728 10728 10728 10728 10727 10726 10725 10724 10723 10722 10722 10721 10720 10719 10717 10715 10714 10712 10711 10709 10707 10706 10704 10703 10701 10700 10699 10698 10697 10695 10692 10690 10688 10686 10685 10683 10681 10680 10678 10676 10674 10672 10669 10667 10665 10662 10659 10656 10653 10650 10646 10642 10639 10635 10632 10628 10625 10623 10621 10620 10619 10618 10618 10618 10618
10693 10696 10699 10702 10707 10710 10712 10713 10714 10715 10717 10718 10720 10721 10722 10722 10723 10724 10723 10722 10722 10722 10722 10722 10723 10722 10722 10721 10720 10719 10719 10718 10717 10716 10715 10714 10713 10711 10709 10708 10707 10706 10704 10703 10701 10700 10698 10697 10696 10696 10694 10692 10690 10687 10686 10685 10683 10681 10679 10677 10676 10674 10672 10670 10668 10665 10663 10660 10657 10654 10651 10648 10644 10640 10637 10633 10630 10627 10624 10621 10619 10618 10617 10616 10616 10616 10616
10690 10693 10696 10699 10703 10705 10707 10708 10709 10710 10712 10714 10715 10716 10717 10717 10718 10718 10717 10716 10716 10717 10717 10717 10717 10717 10716 10716 10715 10715 10714 10714 10713 10712 10711 10710 10708 10707 10705 10704 10703 10702 10701 10700 10699 10698 10696 10695 10694 10693 10692 10690 10688 10685 10684 10683 10681 10679 10677 10676 10674 10672 10670 10668 10666 10664 10661 10658 10655 10652 10649 10645 10642 10639 10635 10631 10628 10625 10622 10620 10618 10616 10615 10614 10614 10614 10614
10687 10689 10693 10696 10698 10699 10701 10703 10704 10706 10707 10709 10710 10711 10711 10712 10712 10712 10712 10711 10711 10711 10712 10712 10712 10712 10711 10711 10711 10710 10710 10709 10708 10707 10707 10705 10704 10702 10701 10700 10700 10699 10698 10697 10697 10695 10694 10692 10691 10691 10690 10688 10685 10683 10681 10680 10679 10677 10676 10674 10672 10670 10668 10666 10664 10662 10659 10657 10653 10650 10647 10643 10640 10637 10633 10630 10626 10623 10620 10618 10616 10614 10613 10612 10612 10612 10612
10684 10685 10687 10690 10691 10693 10695 10697 10699 10700 10702 10703 10704 10704 10704 10705 10706 10706 10706 10706 10706 10706 10706 10707 10707 10707 10707 10707 10706 10706 10706 10705 10704 10702 10701 10700 10699 10698 10697 10697 10696 10696 10696 10695 10694 10693 10691 10690 10689 10688 10687 10685 10683 10681 10679 10678 10677 10676 10674 10672 10670 10669 10667 10665 10663 10661 10658 10655 10652 10649 10645 10642 10638 10635 10632 10628 10625 10622 10619 10617 10615 10613 10611 10610 10610 10609 10610
10679 10680 10682 10684 10686 10689 10691 10692 10693 10694 10696 10697 10698 10697 10697 10698 10699 10700 10700 10701 10701 10701 10702 10702 10702 10702 10702 10702 10702 10702 10701 10700 10699 10698 10696 10695 10695 10694 10694 10693 10693 10693 10693 10692 10692 10690 10688 10687 10686 10686 10685 10683 10681 10679 10677 10676 10675 10674 10672 10670 10669 10667 10665 10663 10661 10659 10656 10654 10651 10647 10644 10640 10637 10634 10630 10627 10623 10620 10617 10615 10613 10611 10610 10608 10608 10607 10607